| time (UTC) | temp F | wind direction | speed MPH | gust MPH | rain 1hr in | rain 24hr in | rain mn in | humidity % | barometer mb |
| 20260906211507 | 101 | 147 | 6.0 | 16.0 | 0.00 | 0.00 | 0.00 | 31 | 1011.8 |
| 20260906210025 | 100 | 153 | 9.0 | 14.0 | 0.00 | 0.00 | 0.00 | 31 | 1012.1 |
| 20260906204518 | 98 | 121 | 11.0 | 16.0 | 0.00 | 0.00 | 0.00 | 33 | 1012.4 |
| 20260906203024 | 99 | 129 | 11.0 | 18.0 | 0.00 | 0.00 | 0.00 | 32 | 1012.5 |
| 20260906201507 | 99 | 101 | 8.0 | 18.0 | 0.00 | 0.00 | 0.00 | 34 | 1012.8 |
| 20260906200010 | 99 | 128 | 12.0 | 17.0 | 0.00 | 0.00 | 0.00 | 30 | 1013.0 |
| 20260906194517 | 100 | 133 | 10.0 | 15.0 | 0.00 | 0.00 | 0.00 | 34 | 1013.2 |
| 20260906193020 | 99 | 53 | 8.0 | 16.0 | 0.00 | 0.00 | 0.00 | 34 | 1013.4 |
| 20260906191531 | 99 | 144 | 13.0 | 19.0 | 0.00 | 0.00 | 0.00 | 34 | 1013.5 |
| 20260906190007 | 99 | 120 | 7.0 | 16.0 | 0.00 | 0.00 | 0.00 | 36 | 1013.7 |
| 20260906184511 | 97 | 70 | 4.0 | 11.0 | 0.00 | 0.00 | 0.00 | 38 | 1013.9 |
| 20260906183017 | 98 | 117 | 8.0 | 15.0 | 0.00 | 0.00 | 0.00 | 38 | 1014.1 |
| 20260906181532 | 98 | 193 | 5.0 | 17.0 | 0.00 | 0.00 | 0.00 | 39 | 1014.3 |
| 20260906180027 | 96 | 60 | 8.0 | 12.0 | 0.00 | 0.00 | 0.00 | 40 | 1014.5 |
| 20260906174508 | 96 | 39 | 9.0 | 15.0 | 0.00 | 0.00 | 0.00 | 41 | 1014.7 |
| 20260906173012 | 95 | 92 | 8.0 | 14.0 | 0.00 | 0.00 | 0.00 | 42 | 1015.2 |
| 20260906171520 | 95 | 122 | 7.0 | 14.0 | 0.00 | 0.00 | 0.00 | 42 | 1015.3 |
| 20260906170024 | 94 | 11 | 4.0 | 13.0 | 0.00 | 0.00 | 0.00 | 44 | 1015.5 |
| 20260906164530 | 94 | 137 | 7.0 | 14.0 | 0.00 | 0.00 | 0.00 | 45 | 1015.6 |
| 20260906163010 | 94 | 137 | 4.0 | 11.0 | 0.00 | 0.00 | 0.00 | 45 | 1015.6 |
| 20260906161514 | 94 | 200 | 3.0 | 7.0 | 0.00 | 0.00 | 0.00 | 45 | 1015.5 |
| 20260906160031 | 93 | 109 | 3.0 | 5.0 | 0.00 | 0.00 | 0.00 | 45 | 1015.5 |
| 20260906154539 | 93 | 108 | 0.0 | 4.0 | 0.00 | 0.00 | 0.00 | 48 | 1015.3 |
| 20260906153038 | 91 | 243 | 1.0 | 6.0 | 0.00 | 0.00 | 0.00 | 50 | 1015.4 |
| 20260906151512 | 89 | 322 | 0.0 | 6.0 | 0.00 | 0.00 | 0.00 | 54 | 1015.4 |
| 20260906150020 | 88 | 297 | 2.0 | 5.0 | 0.00 | 0.00 | 0.00 | 55 | 1015.4 |
| 20260906144526 | 88 | 128 | 1.0 | 5.0 | 0.00 | 0.00 | 0.00 | 55 | 1015.3 |
| 20260906143033 | 87 | 207 | 2.0 | 5.0 | 0.00 | 0.00 | 0.00 | 56 | 1015.4 |
| 20260906141530 | 85 | 266 | 0.0 | 4.0 | 0.00 | 0.00 | 0.00 | 60 | 1015.4 |
| 20260906140013 | 83 | 101 | 3.0 | 4.0 | 0.00 | 0.00 | 0.00 | 63 | 1015.2 |
| 20260906134523 | 82 | 116 | 3.0 | 6.0 | 0.00 | 0.00 | 0.00 | 65 | 1015.2 |
| 20260906133026 | 80 | 105 | 2.0 | 4.0 | 0.00 | 0.00 | 0.00 | 68 | 1015.2 |
| 20260906131526 | 78 | 81 | 3.0 | 4.0 | 0.00 | 0.00 | 0.00 | 70 | 1015.2 |
| 20260906130040 | 77 | 68 | 3.0 | 4.0 | 0.00 | 0.00 | 0.00 | 72 | 1015.1 |
| 20260906124518 | 75 | 61 | 2.0 | 4.0 | 0.00 | 0.00 | 0.00 | 74 | 1014.9 |
| 20260906123032 | 74 | 49 | 3.0 | 4.0 | 0.00 | 0.00 | 0.00 | 75 | 1014.6 |
| 20260906121527 | 74 | 50 | 3.0 | 4.0 | 0.00 | 0.00 | 0.00 | 75 | 1014.5 |
| 20260906120005 | 74 | 47 | 3.0 | 4.0 | 0.00 | 0.00 | 0.00 | 75 | 1014.2 |
| 20260906114504 | 74 | 63 | 3.0 | 4.0 | 0.00 | 0.00 | 0.00 | 74 | 1014.2 |
| 20260906113008 | 74 | 50 | 2.0 | 3.0 | 0.00 | 0.00 | 0.00 | 74 | 1014.1 |
| 20260906111506 | 74 | 66 | 4.0 | 4.0 | 0.00 | 0.00 | 0.00 | 72 | 1014.0 |
| 20260906110012 | 75 | 45 | 2.0 | 4.0 | 0.00 | 0.00 | 0.00 | 71 | 1013.9 |
| 20260906104513 | 76 | 45 | 3.0 | 5.0 | 0.00 | 0.00 | 0.00 | 69 | 1013.8 |
| 20260906103007 | 76 | 32 | 0.0 | 0.0 | 0.00 | 0.00 | 0.00 | 68 | 1013.8 |
| 20260906101508 | 76 | 38 | 0.0 | 0.0 | 0.00 | 0.00 | 0.00 | 68 | 1013.8 |
| 20260906100004 | 77 | 43 | 0.0 | 0.0 | 0.00 | 0.00 | 0.00 | 67 | 1013.8 |
| 20260906094517 | 77 | 43 | 0.0 | 0.0 | 0.00 | 0.00 | 0.00 | 66 | 1013.6 |
| 20260906093011 | 77 | 43 | 0.0 | 0.0 | 0.00 | 0.00 | 0.00 | 66 | 1013.3 |
| 20260906091519 | 77 | 57 | 0.0 | 0.0 | 0.00 | 0.00 | 0.00 | 65 | 1013.3 |
| 20260906090012 | 78 | 82 | 1.0 | 3.0 | 0.00 | 0.00 | 0.00 | 64 | 1013.4 |
| 20260906084515 | 78 | 76 | 1.0 | 3.0 | 0.00 | 0.00 | 0.00 | 64 | 1013.5 |
| 20260906083016 | 77 | 70 | 2.0 | 4.0 | 0.00 | 0.00 | 0.00 | 65 | 1013.5 |
| 20260906081529 | 79 | 89 | 2.0 | 4.0 | 0.00 | 0.00 | 0.00 | 62 | 1013.4 |
| 20260906080011 | 80 | 133 | 3.0 | 6.0 | 0.00 | 0.00 | 0.00 | 60 | 1013.3 |
| 20260906074512 | 80 | 119 | 3.0 | 4.0 | 0.00 | 0.00 | 0.00 | 60 | 1013.3 |
| 20260906073008 | 80 | 135 | 4.0 | 5.0 | 0.00 | 0.00 | 0.00 | 60 | 1013.2 |
| 20260906071513 | 79 | 125 | 5.0 | 6.0 | 0.00 | 0.00 | 0.00 | 60 | 1013.4 |
| 20260906070014 | 80 | 124 | 5.0 | 5.0 | 0.00 | 0.00 | 0.00 | 58 | 1013.3 |
| 20260906064513 | 80 | 113 | 4.0 | 5.0 | 0.00 | 0.00 | 0.00 | 58 | 1013.4 |
| 20260906063013 | 80 | 81 | 2.0 | 3.0 | 0.00 | 0.00 | 0.00 | 58 | 1013.4 |
| 20260906061510 | 81 | 103 | 3.0 | 3.0 | 0.00 | 0.00 | 0.00 | 57 | 1013.4 |
| 20260906060016 | 82 | 121 | 3.0 | 3.0 | 0.00 | 0.00 | 0.00 | 56 | 1013.4 |
| 20260906054516 | 82 | 129 | 4.0 | 4.0 | 0.00 | 0.00 | 0.00 | 55 | 1013.4 |
| 20260906053018 | 82 | 132 | 2.0 | 3.0 | 0.00 | 0.00 | 0.00 | 55 | 1013.4 |
| 20260906051516 | 83 | 129 | 4.0 | 4.0 | 0.00 | 0.00 | 0.00 | 55 | 1013.4 |
| 20260906050033 | 83 | 133 | 4.0 | 4.0 | 0.00 | 0.00 | 0.00 | 54 | 1013.4 |
| 20260906044517 | 83 | 131 | 4.0 | 4.0 | 0.00 | 0.00 | 0.00 | 53 | 1013.3 |
| 20260906043018 | 83 | 127 | 3.0 | 3.0 | 0.00 | 0.00 | 0.00 | 52 | 1013.4 |
| 20260906041518 | 83 | 126 | 2.0 | 3.0 | 0.00 | 0.00 | 0.00 | 53 | 1013.5 |
| 20260906040018 | 83 | 126 | 2.0 | 5.0 | 0.00 | 0.00 | 0.00 | 52 | 1013.5 |
| 20260906034514 | 84 | 120 | 4.0 | 4.0 | 0.00 | 0.00 | 0.00 | 50 | 1013.6 |
| 20260906033024 | 84 | 107 | 3.0 | 6.0 | 0.00 | 0.00 | 0.00 | 50 | 1013.6 |
| 20260906031520 | 85 | 112 | 4.0 | 5.0 | 0.00 | 0.00 | 0.00 | 49 | 1013.4 |
| 20260906030006 | 86 | 113 | 4.0 | 5.0 | 0.00 | 0.00 | 0.00 | 48 | 1013.2 |
| 20260906024510 | 86 | 118 | 4.0 | 5.0 | 0.00 | 0.00 | 0.00 | 48 | 1013.0 |
| 20260906023008 | 87 | 117 | 4.0 | 5.0 | 0.00 | 0.00 | 0.00 | 47 | 1012.8 |
| 20260906021504 | 88 | 113 | 4.0 | 5.0 | 0.00 | 0.00 | 0.00 | 45 | 1012.6 |
| 20260906020009 | 89 | 120 | 4.0 | 5.0 | 0.00 | 0.00 | 0.00 | 45 | 1012.5 |
| 20260906014511 | 90 | 115 | 4.0 | 5.0 | 0.00 | 0.00 | 0.00 | 44 | 1012.2 |
| 20260906013011 | 91 | 124 | 5.0 | 7.0 | 0.00 | 0.00 | 0.00 | 42 | 1011.9 |
| 20260906011512 | 93 | 127 | 6.0 | 11.0 | 0.00 | 0.00 | 0.00 | 40 | 1011.6 |
| 20260906010003 | 94 | 130 | 8.0 | 12.0 | 0.00 | 0.00 | 0.00 | 39 | 1011.6 |
| 20260906004508 | 95 | 131 | 11.0 | 15.0 | 0.00 | 0.00 | 0.00 | 37 | 1011.5 |
| 20260906003014 | 96 | 124 | 8.0 | 16.0 | 0.00 | 0.00 | 0.00 | 36 | 1011.5 |
| 20260906001516 | 97 | 136 | 13.0 | 15.0 | 0.00 | 0.00 | 0.00 | 35 | 1011.3 |
| 20260906000015 | 98 | 143 | 10.0 | 15.0 | 0.00 | 0.00 | 0.00 | 34 | 1011.2 |
| 20260905234504 | 98 | 141 | 7.0 | 15.0 | 0.00 | 0.00 | 0.00 | 33 | 1011.0 |
| 20260905233020 | 99 | 116 | 10.0 | 13.0 | 0.00 | 0.00 | 0.00 | 32 | 1010.8 |
| 20260905231515 | 99 | 119 | 10.0 | 14.0 | 0.00 | 0.00 | 0.00 | 32 | 1010.8 |
| 20260905230015 | 99 | 132 | 7.0 | 16.0 | 0.00 | 0.00 | 0.00 | 32 | 1010.7 |
| 20260905224507 | 99 | 166 | 11.0 | 14.0 | 0.00 | 0.00 | 0.00 | 31 | 1010.8 |
| 20260905223007 | 100 | 147 | 7.0 | 15.0 | 0.00 | 0.00 | 0.00 | 31 | 1010.7 |
| 20260905221511 | 99 | 186 | 8.0 | 16.0 | 0.00 | 0.00 | 0.00 | 32 | 1010.8 |
| 20260905220016 | 99 | 132 | 9.0 | 14.0 | 0.00 | 0.00 | 0.00 | 32 | 1010.8 |
| 20260905214520 | 99 | 127 | 9.0 | 15.0 | 0.00 | 0.00 | 0.00 | 33 | 1011.1 |
| 20260905213020 | 99 | 139 | 11.0 | 18.0 | 0.00 | 0.00 | 0.00 | 32 | 1011.5 |